TimeEST,TemperatureF,Dew PointF,Humidity,Sea Level PressureIn,VisibilityMPH,Wind Direction,Wind SpeedMPH,Gust SpeedMPH,PrecipitationIn,Events,Conditions,WindDirDegrees,DateUTC
1:53 AM,15.1,-0.9,49,30.09,10.0,WNW,12.7,20.7,N/A,,Overcast,300,2013-01-23 06:53:00
2:53 AM,14.0,1.0,56,30.09,10.0,NW,6.9,-,N/A,,Mostly Cloudy,310,2013-01-23 07:53:00
3:53 AM,12.9,-2.0,51,30.10,10.0,NW,10.4,-,N/A,,Clear,310,2013-01-23 08:53:00
4:53 AM,12.0,-4.0,49,30.12,10.0,WNW,12.7,19.6,N/A,,Clear,300,2013-01-23 09:53:00
5:53 AM,12.0,-5.1,46,30.12,10.0,NW,16.1,24.2,N/A,,Clear,320,2013-01-23 10:53:00
6:53 AM,10.9,-5.1,49,30.13,10.0,NW,17.3,26.5,N/A,,Clear,310,2013-01-23 11:53:00
7:53 AM,12.0,-7.1,42,30.15,10.0,NW,13.8,27.6,N/A,,Clear,310,2013-01-23 12:53:00
8:53 AM,12.9,-5.1,45,30.17,10.0,NW,17.3,23.0,N/A,,Clear,310,2013-01-23 13:53:00
9:53 AM,12.9,-4.0,47,30.17,10.0,NW,17.3,25.3,N/A,,Partly Cloudy,320,2013-01-23 14:53:00
10:53 AM,14.0,-4.0,45,30.15,10.0,West,17.3,26.5,N/A,,Scattered Clouds,280,2013-01-23 15:53:00
11:53 AM,15.1,-2.9,45,30.13,10.0,WNW,18.4,25.3,N/A,,Overcast,300,2013-01-23 16:53:00
12:53 PM,15.1,-4.0,43,30.09,10.0,WNW,16.1,24.2,N/A,,Mostly Cloudy,300,2013-01-23 17:53:00
1:53 PM,15.1,-2.9,45,30.08,10.0,NW,16.1,21.9,N/A,,Scattered Clouds,320,2013-01-23 18:53:00
2:53 PM,16.0,-2.9,43,30.09,10.0,WNW,10.4,21.9,N/A,,Scattered Clouds,300,2013-01-23 19:53:00
3:53 PM,15.1,-5.1,41,30.08,10.0,NW,13.8,-,N/A,,Clear,320,2013-01-23 20:53:00
4:53 PM,14.0,-4.0,45,30.09,10.0,NW,9.2,18.4,N/A,,Scattered Clouds,310,2013-01-23 21:53:00
5:53 PM,14.0,-5.1,43,30.11,10.0,NW,16.1,23.0,N/A,,Partly Cloudy,320,2013-01-23 22:53:00
6:53 PM,14.0,-6.0,41,30.12,10.0,NW,18.4,28.8,N/A,,Clear,310,2013-01-23 23:53:00
7:53 PM,14.0,-5.1,43,30.13,10.0,NW,11.5,23.0,N/A,,Partly Cloudy,310,2013-01-24 00:53:00
8:53 PM,12.9,-7.1,41,30.12,10.0,NW,20.7,28.8,N/A,,Clear,320,2013-01-24 01:53:00
10:53 PM,10.9,-7.1,44,30.13,10.0,NW,12.7,18.4,N/A,,Clear,310,2013-01-24 03:53:00
11:53 PM,10.0,-7.1,46,30.13,10.0,NW,9.2,19.6,N/A,,Clear,310,2013-01-24 04:53:00